FW8721 Weather Reports


Display with metric or nautical units.
time (UTC)temp
F
wind
direction
speed
MPH
gust
MPH
rain 1hr
in
rain 24hr
in
rain mn
in
humidity
%
barometer
mb
20260504151057 33 268 17.0 28.0 0.00 0.48 0.16 99 993.9
20260504140554 33 353 18.0 29.0 0.02 0.48 0.16 99 991.8
20260504130602 32 214 13.0 27.0 0.02 0.46 0.14 99 989.5
20260504120105 33 245 12.0 22.0 0.02 0.45 0.13 99 986.9
20260504110559 33 290 13.0 26.0 0.02 0.44 0.12 99 984.0
20260504100544 32 340 11.0 21.0 0.01 0.43 0.10 98 980.9
20260504081101 33 282 7.0 12.0 0.04 0.39 0.06 98 975.9
20260504050552 36 90 3.0 11.0 0.00 0.32 0.00 96 975.9
20260504045050 36 177 4.0 15.0 0.00 0.32 0.00 96 976.2
20260504044559 36 135 6.0 15.0 0.00 0.32 0.00 96 976.3
20260504043548 37 129 5.0 12.0 0.00 0.32 0.00 96 976.5
20260504042557 37 222 3.0 10.0 0.00 0.32 0.00 96 976.6
20260504041555 37 101 6.0 20.0 0.00 0.32 0.00 96 977.0
20260504040555 37 162 13.0 26.0 0.00 0.32 0.00 96 977.2
20260504040045 37 196 6.0 15.0 0.00 0.32 0.00 96 977.4
20260504035053 38 202 7.0 22.0 0.00 0.32 0.00 96 977.3
20260504034613 38 90 5.0 22.0 0.00 0.32 0.00 97 977.4
20260504033558 38 132 10.0 29.0 0.00 0.32 0.00 97 977.3
20260504033056 38 197 9.0 28.0 0.00 0.32 0.00 97 977.7
20260504032101 38 118 7.0 33.0 0.00 0.32 0.00 97 977.4
20260504031043 38 130 16.0 35.0 0.00 0.32 0.00 97 976.6
20260504030110 38 142 20.0 41.0 0.00 0.32 0.00 97 975.9
20260504025557 37 196 21.0 40.0 0.00 0.32 0.32 97 976.2
20260504025049 37 127 22.0 40.0 0.00 0.32 0.32 97 976.6
20260504024048 37 140 9.0 29.0 0.00 0.32 0.32 96 978.0
20260504023057 37 87 13.0 32.0 0.00 0.32 0.32 97 978.7
20260504022050 36 125 13.0 28.0 0.00 0.32 0.32 96 979.3
20260504021050 37 40 18.0 38.0 0.00 0.32 0.32 96 979.8
20260504020056 37 177 18.0 39.0 0.00 0.32 0.32 96 979.4
20260504015547 37 99 20.0 45.0 0.00 0.32 0.32 96 979.8
20260504015049 37 122 23.0 42.0 0.00 0.32 0.32 96 979.1
20260504014047 37 187 28.0 48.0 0.00 0.32 0.32 96 978.4
20260504013102 37 156 26.0 46.0 0.01 0.32 0.32 96 978.6
20260504012102 37 119 32.0 52.0 0.01 0.32 0.32 96 978.7
20260504011100 37 126 31.0 51.0 0.02 0.32 0.32 96 979.3
20260504010552 37 89 33.0 56.0 0.02 0.32 0.32 96 979.3
20260504005557 37 196 32.0 64.0 0.02 0.32 0.32 96 979.0
20260504005055 37 132 33.0 60.0 0.02 0.32 0.32 96 979.5
20260504004103 37 152 32.0 53.0 0.02 0.32 0.32 96 980.0
20260504002056 37 133 28.0 54.0 0.02 0.31 0.31 96 982.7
20260504001557 37 154 27.0 45.0 0.02 0.31 0.31 96 983.1
20260504001037 37 119 27.0 49.0 0.02 0.31 0.31 96 983.6
20260504000048 37 115 25.0 42.0 0.02 0.31 0.31 96 984.7
20260503235057 37 126 20.0 43.0 0.02 0.31 0.31 97 986.4
20260503234554 37 210 19.0 42.0 0.03 0.31 0.31 97 986.8
20260503234047 37 126 18.0 37.0 0.03 0.30 0.30 96 987.5
20260503233102 37 158 15.0 36.0 0.05 0.30 0.30 97 988.5
20260503232558 37 108 16.0 36.0 0.06 0.30 0.30 97 989.2
20260503232056 37 116 19.0 35.0 0.06 0.29 0.29 96 989.3
20260503231049 38 166 17.0 30.0 0.06 0.29 0.29 97 990.4
20260503230546 38 111 15.0 30.0 0.07 0.29 0.29 97 991.2
20260503225551 38 156 12.0 25.0 0.08 0.28 0.28 98 991.9
20260503225048 38 114 12.0 24.0 0.09 0.28 0.28 98 992.3
20260503224047 38 129 9.0 20.0 0.11 0.26 0.26 98 993.1
20260503223059 37 61 5.0 16.0 0.13 0.25 0.25 98 994.1
20260503222548 36 150 8.0 16.0 0.13 0.24 0.24 97 994.2
20260503221551 36 75 8.0 20.0 0.13 0.23 0.23 97 994.4
20260503220558 35 106 9.0 24.0 0.12 0.22 0.22 97 994.4
20260503220053 35 185 8.0 21.0 0.11 0.21 0.21 97 994.3
20260503215547 35 85 7.0 25.0 0.10 0.20 0.20 97 994.6
20260503214547 34 100 10.0 24.0 0.08 0.17 0.17 97 993.8
20260503213606 35 117 12.0 28.0 0.05 0.13 0.13 96 994.1
20260503213055 35 93 14.0 29.0 0.03 0.11 0.11 96 994.2
20260503212545 35 100 15.0 29.0 0.04 0.11 0.11 95 994.8
20260503211608 37 72 10.0 25.0 0.06 0.10 0.10 96 996.0
20260503211048 37 135 8.0 16.0 0.07 0.10 0.10 96 996.2
20260503210542 37 97 8.0 16.0 0.09 0.10 0.10 96 996.2
20260503205601 37 91 8.0 16.0 0.09 0.10 0.10 96 996.7
20260503205040 37 81 7.0 13.0 0.09 0.09 0.09 96 997.3
20260503204059 37 94 4.0 14.0 0.09 0.09 0.09 95 998.1
20260503203100 37 78 7.0 15.0 0.08 0.08 0.08 95 998.5
20260503202546 37 105 7.0 15.0 0.07 0.07 0.07 95 998.6
20260503201559 37 110 11.0 23.0 0.04 0.04 0.04 95 998.7
20260503200555 37 131 10.0 23.0 0.01 0.01 0.01 94 999.0
20260503200050 37 102 10.0 23.0 0.01 0.01 0.01 93 999.2
20260503195059 38 101 10.0 23.0 0.00 0.00 0.00 91 999.9
20260503194554 38 152 10.0 21.0 0.00 0.00 0.00 89 1000.4
20260503194054 38 112 9.0 19.0 0.00 0.00 0.00 88 1001.0
20260503193101 39 83 11.0 21.0 0.00 0.00 0.00 85 1001.6
20260503192556 39 129 9.0 21.0 0.00 0.00 0.00 83 1001.8
20260503192041 40 139 10.0 18.0 0.00 0.00 0.00 81 1002.1
20260503191100 41 130 9.0 25.0 0.00 0.00 0.00 78 1002.6
20260503190556 42 167 11.0 23.0 0.00 0.00 0.00 76 1002.7
20260503185558 43 16 8.0 14.0 0.00 0.00 0.00 71 1003.3
20260503184557 44 125 11.0 23.0 0.00 0.00 0.00 69 1003.7
20260503183559 44 112 10.0 20.0 0.00 0.00 0.00 66 1004.1
20260503183109 45 124 10.0 22.0 0.00 0.00 0.00 63 1004.1
20260503182548 45 158 12.0 25.0 0.00 0.00 0.00 60 1004.3
20260503182046 46 125 14.0 26.0 0.00 0.00 0.00 57 1004.5
20260503181053 47 123 10.0 25.0 0.00 0.00 0.00 52 1004.8
20260503180120 47 173 14.0 28.0 0.00 0.00 0.00 47 1004.7
20260503175050 47 173 13.0 29.0 0.00 0.00 0.00 48 1004.8
20260503174547 47 133 15.0 27.0 0.00 0.00 0.00 46 1005.2
20260503173103 47 150 14.0 27.0 0.00 0.00 0.00 46 1005.8
20260503172056 47 132 19.0 30.0 0.00 0.00 0.00 45 1005.8
20260503171556 47 158 13.0 26.0 0.00 0.00 0.00 47 1005.9
20260503171043 47 179 18.0 31.0 0.00 0.00 0.00 46 1005.7
20260503170542 46 119 16.0 31.0 0.00 0.00 0.00 49 1005.9